Zurück zum Katalog

STARLINK-2505

AktivKommunikationVLEO
NORAD 48411·PAYLOAD·🇺🇸 United States

Gestartet May 4, 2021 von Cape Canaveral Space Force Station

Loading…

Nächste Überflüge (nächste 24 Stunden)

TLE

AktuellSource: CelesTrak SupGP

Epoche: Sep 15, 2026, 01:26 UTC

1 48411C 21038BL  26258.06020833  .00063617  00000+0  20459-2 0  2589
2 48411  53.1590 132.5690 0001082  82.2241 346.5570 15.31668571    13

Verfolge STARLINK-2505 in Echtzeit mit AllMySat

Download on the App Store